This is the latest recevied weather packets stored in our database for station/object KD8TSA. If no packets are shown the sender has not sent any weather packets the latest 10 day(s).
| Time | Temp. | Humidity | Pressure | Rain* | Wind** | Luminosity | Snow |
|---|---|---|---|---|---|---|---|
| 1777635212 | 6.67° C | 82% | 1012 hPa | 0 mm | - | 20 W/m² | - |
| 1777634909 | 6.67° C | 82% | 1011.9 hPa | 0 mm | - | 19 W/m² | - |
| 1777634606 | 6.67° C | 82% | 1011.8 hPa | 0 mm | - | 14 W/m² | - |
| 1777634304 | 6.67° C | 82% | 1011.9 hPa | 0 mm | - | 11 W/m² | - |
| 1777634000 | 6.67° C | 81% | 1011.7 hPa | 0 mm | - | 12 W/m² | - |
| 1777633697 | 6.67° C | 81% | 1011.5 hPa | 0 mm | - | 19 W/m² | - |
| 1777633395 | 6.67° C | 81% | 1011.7 hPa | 0 mm | - | 16 W/m² | - |
| 1777633092 | 6.67° C | 80% | 1011.5 hPa | 0 mm | - | 11 W/m² | - |
| 1777632788 | 6.67° C | 80% | 1011.6 hPa | 0 mm | - | 9 W/m² | - |
| 1777632484 | 6.67° C | 81% | 1011.5 hPa | 0 mm | - | 6 W/m² | - |
| 1777631879 | 6.67° C | 82% | 1011.3 hPa | 0 mm | - | 0 W/m² | - |
| 1777631577 | 6.11° C | 82% | 1011.6 hPa | 0 mm | - | 0 W/m² | - |
| 1777631274 | 6.11° C | 83% | 1011.6 hPa | 0 mm | - | 0 W/m² | - |
| 1777630971 | 6.11° C | 84% | 1011.8 hPa | 0 mm | - | 0 W/m² | - |
| 1777630666 | 6.11° C | 84% | 1011.9 hPa | 0 mm | - | 0 W/m² | - |
| 1777630364 | 6.11° C | 84% | 1011.9 hPa | 0 mm | - | 0 W/m² | - |
| 1777630062 | 6.11° C | 84% | 1012 hPa | 0 mm | - | 0 W/m² | - |
| 1777629759 | 6.11° C | 84% | 1012 hPa | 0 mm | - | 0 W/m² | - |
| 1777629455 | 6.11° C | 85% | 1011.9 hPa | 0 mm | - | 0 W/m² | - |
| 1777629152 | 6.11° C | 85% | 1012.1 hPa | 0 mm | - | 0 W/m² | - |
| 1777628848 | 5.56° C | 85% | 1012.1 hPa | 0 mm | - | 0 W/m² | - |
| 1777628241 | 5.56° C | 84% | 1012.3 hPa | 0 mm | - | 0 W/m² | - |
| 1777627936 | 5.56° C | 84% | 1012.2 hPa | 0 mm | - | 0 W/m² | - |
| 1777627631 | 5.56° C | 84% | 1012.3 hPa | 0 mm | - | 0 W/m² | - |
| 1777627331 | 5.56° C | 84% | 1012.2 hPa | 0 mm | - | 0 W/m² | - |
* Rain latest hour (hover to see other rain measurements)
** Current wind speed in m/s (hover to see current wind gust speed)